Total_Precipitation_Accumulation
0.15 0.27 0.56 0.69 0.81 0.83 0.74 0.74 0.71 0.67 0.69 0.67 0.64 0.60 0.54 0.51 0.48 0.45 0.46 0.50 0.59 0.67 0.74 0.79 0.75 0.68 0.58 0.48 0.34 0.23 0.20 0.23 0.20 0.17 0.15 0.20 0.27 0.27 0.24 0.24 0.26 0.31 0.42
0.14 0.25 0.50 0.67 0.87 0.92 0.84 0.78 0.67 0.62 0.66 0.74 0.73 0.68 0.63 0.57 0.55 0.52 0.58 0.61 0.69 0.72 0.75 0.80 0.78 0.63 0.49 0.37 0.26 0.19 0.17 0.11 0.08 0.06 0.04 0.09 0.17 0.23 0.22 0.22 0.24 0.35 0.42
0.17 0.26 0.46 0.67 0.89 0.92 0.84 0.76 0.63 0.58 0.63 0.75 0.83 0.76 0.69 0.66 0.64 0.61 0.65 0.71 0.78 0.79 0.71 0.66 0.63 0.46 0.35 0.24 0.19 0.16 0.14 0.10 0.07 0.05 0.06 0.12 0.19 0.29 0.29 0.25 0.32 0.41 0.40
0.23 0.30 0.46 0.72 0.96 1.00 0.93 0.81 0.69 0.66 0.70 0.79 0.94 0.94 0.85 0.77 0.75 0.76 0.74 0.74 0.77 0.72 0.64 0.51 0.46 0.32 0.24 0.20 0.15 0.13 0.11 0.09 0.06 0.06 0.11 0.16 0.21 0.39 0.40 0.35 0.37 0.41 0.36
0.31 0.38 0.54 0.78 1.04 1.08 0.97 0.87 0.76 0.75 0.80 0.88 0.96 1.05 1.03 0.92 0.91 0.88 0.83 0.74 0.72 0.66 0.52 0.40 0.34 0.23 0.17 0.15 0.14 0.12 0.11 0.08 0.05 0.07 0.12 0.18 0.27 0.47 0.45 0.40 0.40 0.42 0.34
0.42 0.54 0.68 0.87 1.11 1.22 1.08 0.96 0.87 0.86 0.92 0.98 1.04 1.12 1.13 1.11 1.13 1.05 0.86 0.71 0.63 0.56 0.44 0.35 0.31 0.21 0.15 0.14 0.12 0.11 0.12 0.09 0.06 0.07 0.10 0.14 0.24 0.46 0.50 0.42 0.41 0.42 0.40
0.49 0.71 0.90 1.07 1.23 1.40 1.31 1.17 1.08 1.04 1.04 1.06 1.10 1.12 1.16 1.16 1.21 1.15 0.87 0.69 0.59 0.53 0.46 0.35 0.30 0.23 0.18 0.16 0.13 0.11 0.10 0.09 0.09 0.10 0.10 0.14 0.26 0.53 0.58 0.51 0.50 0.49 0.46
0.61 0.80 1.11 1.42 1.49 1.60 1.58 1.38 1.27 1.17 1.14 1.16 1.17 1.18 1.22 1.25 1.24 1.20 0.91 0.71 0.60 0.59 0.54 0.44 0.35 0.29 0.22 0.19 0.15 0.12 0.11 0.08 0.07 0.09 0.11 0.14 0.25 0.43 0.47 0.44 0.45 0.45 0.41
0.90 0.96 1.16 1.45 1.64 1.75 1.76 1.50 1.42 1.27 1.18 1.20 1.26 1.28 1.18 1.16 1.20 1.15 0.93 0.77 0.69 0.71 0.66 0.57 0.48 0.38 0.28 0.23 0.18 0.13 0.09 0.07 0.06 0.09 0.10 0.13 0.22 0.36 0.39 0.37 0.40 0.41 0.40
1.33 1.31 1.32 1.50 1.66 1.84 1.90 1.56 1.38 1.26 1.19 1.18 1.17 1.07 0.92 0.91 0.98 1.03 0.93 0.81 0.73 0.75 0.70 0.61 0.54 0.44 0.34 0.26 0.20 0.14 0.09 0.07 0.08 0.10 0.12 0.14 0.24 0.35 0.37 0.38 0.38 0.40 0.42
1.75 1.75 1.67 1.66 1.65 1.74 1.88 1.68 1.53 1.37 1.23 1.15 1.11 0.98 0.89 0.89 0.90 0.83 0.76 0.73 0.72 0.74 0.76 0.67 0.57 0.48 0.35 0.25 0.19 0.15 0.12 0.10 0.12 0.16 0.16 0.17 0.27 0.35 0.40 0.44 0.44 0.44 0.43
1.85 1.84 1.87 1.86 1.79 1.79 1.82 1.80 1.70 1.49 1.33 1.18 1.07 0.99 0.99 0.99 0.94 0.81 0.77 0.73 0.76 0.78 0.85 0.78 0.63 0.55 0.38 0.30 0.25 0.19 0.16 0.13 0.16 0.20 0.19 0.22 0.34 0.43 0.48 0.47 0.42 0.41 0.44
2.12 2.01 1.98 2.02 2.06 1.96 1.92 1.82 1.71 1.49 1.37 1.31 1.20 1.07 1.07 1.17 1.10 1.03 0.90 0.81 0.82 0.78 0.80 0.77 0.68 0.56 0.41 0.33 0.30 0.23 0.20 0.20 0.19 0.21 0.23 0.27 0.41 0.52 0.54 0.50 0.41 0.39 0.42
2.52 2.37 2.31 2.36 2.32 2.20 2.07 1.92 1.78 1.54 1.35 1.29 1.26 1.26 1.20 1.18 1.06 1.00 0.92 0.79 0.76 0.74 0.74 0.75 0.66 0.59 0.54 0.44 0.37 0.35 0.31 0.29 0.27 0.29 0.30 0.29 0.38 0.51 0.59 0.61 0.53 0.50 0.50
2.72 2.73 2.66 2.66 2.66 2.51 2.37 2.14 1.82 1.66 1.45 1.32 1.29 1.32 1.27 1.17 1.07 1.00 0.95 0.92 0.81 0.75 0.73 0.80 0.79 0.71 0.66 0.61 0.51 0.42 0.39 0.37 0.35 0.36 0.35 0.35 0.39 0.48 0.62 0.73 0.75 0.74 0.75
2.74 2.91 2.99 2.97 2.88 2.75 2.56 2.32 1.98 1.79 1.60 1.50 1.42 1.33 1.29 1.26 1.23 1.15 1.00 0.94 0.89 0.82 0.78 0.84 0.88 0.81 0.78 0.70 0.62 0.53 0.47 0.44 0.38 0.36 0.36 0.37 0.37 0.43 0.55 0.72 0.86 0.96 0.99
2.70 2.99 3.15 3.25 3.33 3.07 2.83 2.59 2.29 2.08 1.87 1.69 1.53 1.42 1.33 1.27 1.33 1.30 1.18 1.01 0.91 0.94 0.93 0.94 0.99 1.00 0.91 0.78 0.70 0.64 0.57 0.50 0.43 0.39 0.39 0.37 0.35 0.33 0.42 0.60 0.81 0.94 1.02
2.67 2.89 3.07 3.06 3.28 3.37 3.22 2.95 2.55 2.26 2.07 1.93 1.78 1.62 1.54 1.40 1.42 1.46 1.34 1.23 1.13 1.14 1.14 1.09 1.01 0.94 0.87 0.77 0.70 0.67 0.64 0.59 0.51 0.50 0.49 0.42 0.37 0.31 0.33 0.43 0.58 0.76 0.91
2.70 2.82 3.07 3.06 3.11 3.27 3.40 3.28 2.98 2.67 2.37 2.18 2.09 1.92 1.83 1.73 1.64 1.63 1.53 1.42 1.40 1.36 1.34 1.26 1.14 1.01 0.90 0.81 0.76 0.77 0.76 0.69 0.63 0.59 0.54 0.45 0.42 0.40 0.39 0.38 0.40 0.50 0.63
2.76 2.99 3.18 3.31 3.31 3.44 3.75 3.76 3.48 3.16 2.86 2.62 2.41 2.28 2.14 2.07 1.98 1.86 1.79 1.69 1.62 1.53 1.47 1.44 1.31 1.17 1.03 0.97 0.94 0.86 0.81 0.74 0.71 0.67 0.61 0.54 0.49 0.48 0.51 0.52 0.50 0.49 0.53
2.48 2.81 2.93 3.17 3.35 3.47 3.57 3.55 3.36 3.08 2.87 2.73 2.66 2.62 2.46 2.29 2.23 2.12 1.96 1.94 1.86 1.69 1.53 1.53 1.51 1.37 1.25 1.24 1.20 0.99 0.83 0.75 0.71 0.67 0.69 0.68 0.60 0.53 0.54 0.61 0.66 0.62 0.52
2.08 2.32 2.55 2.76 2.98 3.14 3.19 3.20 3.28 3.29 3.04 2.79 2.71 2.68 2.67 2.59 2.45 2.27 2.13 2.05 2.01 1.93 1.73 1.61 1.65 1.61 1.48 1.44 1.46 1.41 1.20 0.99 0.77 0.69 0.69 0.69 0.66 0.64 0.58 0.57 0.58 0.62 0.62
1.82 2.00 2.21 2.45 2.59 2.67 2.96 3.20 3.26 3.45 3.36 2.92 2.61 2.46 2.56 2.69 2.71 2.52 2.32 2.28 2.22 2.16 2.04 1.89 1.81 1.77 1.72 1.62 1.62 1.80 1.60 1.26 0.93 0.78 0.75 0.74 0.72 0.74 0.73 0.67 0.62 0.61 0.63
1.55 1.72 1.96 2.27 2.47 2.47 2.68 2.88 2.87 2.80 2.86 2.67 2.49 2.50 2.57 2.63 2.71 2.73 2.58 2.40 2.33 2.29 2.21 2.26 2.25 2.12 2.01 1.81 1.67 1.59 1.57 1.41 1.32 1.08 0.86 0.84 0.80 0.77 0.81 0.79 0.74 0.70 0.66
1.32 1.43 1.63 2.01 2.31 2.40 2.43 2.56 2.70 2.71 2.69 2.75 2.69 2.63 2.55 2.45 2.51 2.64 2.65 2.52 2.29 2.17 2.10 2.14 2.23 2.26 2.14 1.95 1.78 1.68 1.60 1.43 1.34 1.35 1.15 0.96 0.92 0.81 0.79 0.84 0.87 0.87 0.86
1.14 1.17 1.32 1.55 1.97 2.31 2.39 2.40 2.44 2.47 2.43 2.52 2.64 2.61 2.59 2.45 2.33 2.34 2.37 2.34 2.28 2.16 2.05 2.06 2.18 2.25 2.26 2.19 2.00 1.79 1.70 1.59 1.39 1.40 1.35 1.18 1.14 1.02 0.91 0.91 0.96 1.00 1.02